Printer-friendly version

IAU Minor Planet Center

Minor Planet Center

MPEC 2006-V10 : 2006 VC

The following Minor Planet Electronic Circular may be linked-to from your own Web pages, but must not otherwise be redistributed electronically.

A form allowing access to any MPEC is at the bottom of this page.


Read MPEC 2006-V09 Read MPEC 2006-V11


M.P.E.C. 2006-V10                                Issued 2006 Nov. 2, 01:53 UT

     The Minor Planet Electronic Circulars contain information on unusual
         minor planets and routine data on comets.  They are published
   on behalf of Commission 20 of the International Astronomical Union by the
          Minor Planet Center, Smithsonian Astrophysical Observatory,
                          Cambridge, MA 02138, U.S.A.

             Prepared using the Tamkin Foundation Computer Network

                              MPC@CFA.HARVARD.EDU
          URL http://cfa-www.harvard.edu/iau/mpc.html  ISSN 1523-6714

                                    2006 VC

Observations:
     K06V00C* C2006 11 01.39977 04 49 30.50 -16 27 14.9          18.8 V EV010703
     K06V00C  C2006 11 01.40832 04 49 31.72 -16 27 21.9          18.3 V EV010703
     K06V00C  C2006 11 01.42126 04 49 33.45 -16 27 28.0          18.1 V EV010703
     K06V00C  C2006 11 01.45743 04 49 38.28 -16 27 50.7          18.6 V EV010703
     K06V00C  C2006 11 01.46285 04 49 39.03 -16 27 54.3          18.8 V EV010703
     K06V00C  C2006 11 01.47368 04 49 40.51 -16 27 59.7          19.0 V EV010703
     K06V00C  C2006 11 01.48623 04 49 42.20 -16 28 07.7          19.7 V EV010703
     K06V00C  C2006 11 01.48879 04 49 42.56 -16 28 09.4          18.7 V EV010703
     K06V00C  C2006 11 01.49134 04 49 42.88 -16 28 10.5          19.1 V EV010703
     K06V00C  C2006 11 01.49390 04 49 43.21 -16 28 12.3          19.0 V EV010703
     K06V00C  C2006 11 01.65352 04 50 07.90 -16 29 20.8          18.9 R EV010E12
     K06V00C  C2006 11 01.65541 04 50 08.15 -16 29 21.9          18.5 R EV010E12
     K06V00C  C2006 11 01.98021 04 50 56.49 -16 33 13.2          18.9 R EV010473
     K06V00C  C2006 11 01.98759 04 50 57.41 -16 33 18.0          18.7 R EV010473
     K06V00C bC2006 11 02.01003 04 51 00.90 -16 33 32.9                 EV010J95
     K06V00C  C2006 11 02.01415 04 51 01.17 -16 33 37.0          18.9 R EV010473
     K06V00C bC2006 11 02.01454 04 51 01.53 -16 33 36.4                 EV010J95
     K06V00C bC2006 11 02.01907 04 51 02.17 -16 33 40.1          19.4 R EV010J95
     K06V00C  C2006 11 02.02227 04 51 02.41 -16 33 40.9          18.9 R EV010473

Observer details:
473 Remanzacco.  Observers G. Sostero, E. Guido.  0.45-m f/4.4 Newtonian
    reflector + CCD.
703 Catalina Sky Survey.  Observer R. E. Hill.  Measurers E. C. Beshore,
    E. J. Christensen, G. J. Garradd, A. R. Gibbs, A. D. Grauer, R. E. Hill,
    R. A. Kowalski, S. M. Larson, R. H. McNaught.  0.68-m Schmidt + CCD.
E12 Siding Spring Survey.  Observer R. H. McNaught.  0.5-m Uppsala Schmidt
    + CCD.
J95 Great Shefford.  Observer P. Birtwhistle.  0.40-m f/6.0 Schmidt-Cassegrain
    + CCD.

Orbital elements:
2006 VC                                             PHA, Earth MOID = 0.0058 AU
Epoch 2006 Sept. 22.0 TT = JDT 2454000.5                MPC
M 323.93665              (2000.0)            P               Q
n   0.35547390     Peri.   26.63867     -0.33742004     -0.91338603
a   1.9736232      Node    83.80432     +0.81765957     -0.40426362
e   0.5155625      Incl.   13.24386     +0.46645529     +0.04792584
P   2.77           H   19.8           G   0.15           U   9
Residuals in seconds of arc
061101 703  0.5-  0.6+    061101 703  0.1+  0.2-    061102 J95  0.0   0.7+
061101 703  0.5+  1.1-    061101 703  0.3-  0.2+    061102 473  0.3-  1.5-
061101 703  0.4+  0.7+    061101 703  0.6-  0.1-    061102 J95  0.1-  0.1+
061101 703  0.2-  0.2-    061101 E12  0.4+  0.1-    061102 J95  0.0   0.8-
061101 703  0.0   0.5-    061101 E12  0.3+  0.1-    061102 473  1.3+  0.4-
061101 703  0.2+  0.5+    061101 473  0.5+  1.2+
061101 703  0.1-  0.0     061101 473  1.1-  1.0+

Ephemeris:
2006 VC                  a,e,i = 1.97, 0.52, 13                  q = 0.9561
Date    TT    R. A. (2000) Decl.     Delta      r     Elong.  Phase     V
2006 11 01    04 48.54   -16 22.7    0.291    1.210   132.9    36.9    19.0
2006 11 11    05 17.69   -17 48.1    0.214    1.144   131.8    40.1    18.3
2006 11 21    06 07.39   -17 50.5    0.145    1.085   128.6    45.4    17.5
2006 12 01    07 53.26   -12 37.7    0.0913   1.033   118.9    56.7    16.7
2006 12 11    11 02.20   +04 40.6    0.0803   0.993    93.8    81.6    17.2
2006 12 21    13 17.00   +15 52.8    0.121    0.967    78.5    94.5    18.5
2006 12 31    14 19.51   +18 56.5    0.179    0.956    76.1    93.4    19.3
2007 01 10    14 53.87   +19 38.8    0.238    0.962    77.9    88.1    19.7
2007 01 20    15 16.36   +19 41.3    0.293    0.984    81.4    81.4    19.9
2007 01 30    15 31.93   +19 37.1    0.340    1.020    86.1    74.4    20.1
2007 02 09    15 42.13   +19 39.5    0.379    1.068    91.9    67.3    20.2
2007 02 19    15 46.94   +19 54.4    0.410    1.126    98.7    60.2    20.3
2007 03 01    15 45.77   +20 18.9    0.433    1.190   106.7    52.9    20.3
2007 03 11    15 38.20   +20 43.4    0.453    1.259   115.9    45.2    20.3
2007 03 21    15 24.21   +20 53.4    0.474    1.330   125.9    37.3    20.3
2007 03 31    15 05.01   +20 29.4    0.501    1.403   136.1    29.6    20.3
2007 04 10    14 43.25   +19 18.7    0.540    1.477   145.0    22.9    20.4
2007 04 20    14 22.16   +17 20.9    0.596    1.550   150.3    18.7    20.6
2007 04 30    14 04.54   +14 47.2    0.670    1.623   150.1    18.0    20.9
2007 05 10    13 51.78   +11 55.3    0.763    1.694   145.4    19.8    21.4
2007 05 20    13 44.02   +08 59.2    0.874    1.764   138.5    22.3    21.8

Timothy B. Spahr             (C) Copyright 2006 MPC           M.P.E.C. 2006-V10

Read MPEC 2006-V09 Read MPEC 2006-V11


MPEC number:

Enter an
MPEC number in one of the following forms:
  • 1997-B01 (the full form)
  • J97B01 (the packed version of the full form)
  • B01 (the abbreviated form)

Valid HTML 4.01!